Latest Coastal Weather Observations for Cape Grim

IDT60701

Issued at 11:12 pm EDT Tuesday 28 February 2017 (issued every 10 minutes, with the page automatically refreshed every 10 minutes)

About coastal observations | Map of coastal stations | Coastal observations for TAS | Marine services | Other Formats
Station Details ID: 091331 Name: CAPE GRIM Lat: -40.68 Lon: 144.69 Height: 86.0 m
Data from the previous 72 hours. | See also: Recent months at Cape Grim
Date/Time
EDT
Temp
°C
Wind Pressure Rain since
9am
mm
Weather Cloud Vis
km
Sea
Height
m
Swell
Dir  Spd
kts
Gust
kts
hPa Trend Height
m
Period
s
Dir
28/11:00pm 17.4 ENE 17 20 1021.8 - 0.0 - Cloudy - - - - -
28/10:30pm 17.3 E 16 19 1021.9 - 0.0 - Cloudy - - - - -
28/10:00pm 17.7 ENE 17 19 1022.2 - 0.0 - Cloudy - - - - -
28/09:43pm 17.9 ENE 15 18 1022.2 - 0.0 - Partly cloudy - - - - -
28/09:30pm 17.9 ENE 16 19 1022.1 - 0.0 - - - - - - -
28/09:00pm 18.0 ENE 17 20 1021.7 - 0.0 - - - - - - -
28/08:30pm 18.2 E 18 21 1021.5 - 0.0 - - - - - - -
28/08:00pm 18.5 ENE 18 21 1021.3 - 0.0 - - - - - - -
28/07:30pm 19.0 E 19 23 1021.2 - 0.0 - - - - - - -
28/07:00pm 19.7 ENE 19 22 1021.0 - 0.0 - - - - - - -
28/06:30pm 20.2 ENE 19 24 1021.1 - 0.0 - - - - - - -
28/06:00pm 20.8 ENE 21 24 1021.0 - 0.0 - - - - - - -
28/05:30pm 21.4 ENE 21 26 1021.1 - 0.0 - - - - - - -
28/05:00pm 22.3 ENE 20 25 1021.1 - 0.0 - - - - - - -
28/04:30pm 22.3 ENE 22 26 1021.2 - 0.0 - - - - - - -
28/04:00pm 22.7 ENE 23 27 1021.3 - 0.0 - - - - - - -
28/03:30pm 22.8 ENE 23 28 1021.6 - 0.0 - - - - - - -
28/03:00pm 22.5 ENE 23 28 1021.9 - 0.0 - - - - - - -
28/02:30pm 23.0 E 23 28 1022.2 - 0.0 - - - - - - -
28/02:00pm 22.3 ENE 25 29 1022.2 - 0.0 - - - - - - -
28/01:30pm 22.4 ENE 25 30 1022.2 - 0.0 - - - - - - -
28/01:00pm 21.9 ENE 25 30 1022.4 - 0.0 - - - - - - -
28/12:30pm 21.8 E 24 30 1022.5 - 0.0 - - - - - - -
28/12:00pm 21.7 ENE 25 29 1023.3 - 0.0 - - - - - - -
28/11:30am 21.3 ENE 25 31 1022.8 - 0.0 - - - - - - -
28/11:00am 21.4 E 25 30 1022.6 - 0.0 - - - - - - -
28/10:30am 20.5 ENE 25 30 1022.4 - 0.0 - - - - - - -
28/10:00am 20.0 E 25 30 1022.3 - 0.0 - - - - - - -
28/09:30am 19.3 E 24 29 1022.4 - 0.0 - - - - - - -
28/09:00am 18.5 E 23 29 1022.4 - 0.0 - - - - - - -
28/08:30am 17.7 E 23 27 1022.4 - 0.0 - Partly cloudy - - - - -
28/08:00am 17.1 ENE 22 27 1022.3 - 0.0 - Partly cloudy - - - - -
28/07:30am 17.0 ENE 21 25 1022.2 - 0.0 - Cloudy - - - - -
28/07:00am 17.2 ENE 20 24 1022.2 - 0.0 - Cloudy - - - - -
28/06:31am 17.3 ENE 20 25 1022.3 - 0.0 - Cloudy - - - - -
28/06:30am 17.3 ENE 20 25 1022.2 - 0.0 - Cloudy - - - - -
28/06:00am 17.4 ENE 21 26 1022.1 - 0.0 - Cloudy - - - - -
28/05:30am 17.3 ENE 21 26 1021.8 - 0.0 - Cloudy - - - - -
28/05:00am 17.3 ENE 23 29 1021.8 - 0.0 - Cloudy - - - - -
28/04:30am 17.3 ENE 22 27 1021.9 - 0.0 - Cloudy - - - - -
28/04:00am 17.1 ENE 21 26 1022.2 - 0.0 - Cloudy - - - - -
28/03:30am 16.9 E 22 29 1022.4 - 0.0 - Partly cloudy - - - - -
28/03:00am 16.8 E 24 30 1022.3 - 0.0 - - - - - - -
28/02:30am 16.9 E 23 28 1022.5 - 0.0 - - - - - - -
28/02:00am 17.0 E 25 31 1022.7 - 0.0 - - - - - - -
28/01:30am 17.0 E 26 32 1022.7 - 0.0 - - - - - - -
28/01:00am 17.0 E 25 30 1022.8 - 0.0 - - - - - - -
28/12:30am 17.0 ENE 25 31 1022.9 - 0.0 - - - - - - -
28/12:00am 17.0 ENE 25 31 1023.0 - 0.0 - - - - - - -
 
Date/Time
EDT
Temp
°C
Wind Pressure Rain since
9am
mm
Weather Cloud Vis
km
Sea
Height
m
Swell
Dir  Spd
kts
Gust
kts
hPa Trend Height
m
Period
s
Dir
27/11:30pm 17.0 ENE 24 29 1023.2 - 0.0 - - - - - - -
27/11:00pm 17.1 ENE 25 32 1023.3 - 0.0 - - - - - - -
27/10:30pm 17.2 ENE 25 32 1023.4 - 0.0 - - - - - - -
27/10:00pm 17.1 ENE 24 30 1023.4 - 0.0 - - - - - - -
27/09:30pm 17.1 ENE 23 30 1023.3 - 0.0 - - - - - - -
27/09:00pm 17.3 ENE 24 31 1023.3 - 0.0 - - - - - - -
27/08:30pm 17.4 ENE 24 30 1023.2 - 0.0 - - - - - - -
27/08:00pm 17.7 ENE 25 31 1023.0 - 0.0 - - - - - - -
27/07:47pm 17.8 ENE 24 34 1023.0 - 0.0 - - - - - - -
27/07:30pm 18.1 ENE 25 30 1022.9 - 0.0 - - - - - - -
27/07:00pm 18.6 ENE 24 30 1022.8 - 0.0 - - - - - - -
27/06:30pm 19.1 ENE 26 31 1022.8 - 0.0 - - - - - - -
27/06:00pm 19.5 ENE 26 33 1022.7 - 0.0 - Mostly clear - - - - -
27/05:30pm 20.1 ENE 27 33 1022.7 - 0.0 - Partly cloudy - - - - -
27/05:00pm 20.4 ENE 28 35 1022.8 - 0.0 - - - - - - -
27/04:30pm 20.5 ENE 27 34 1022.8 - 0.0 - Partly cloudy - - - - -
27/04:00pm 20.8 ENE 26 34 1023.2 - 0.0 - Partly cloudy - - - - -
27/03:30pm 21.2 ENE 27 34 1023.0 - 0.0 - - - - - - -
27/03:00pm 21.1 ENE 26 34 1023.5 - 0.0 - Mostly clear - - - - -
27/02:30pm 20.7 ENE 27 31 1023.8 - 0.0 - - - - - - -
27/02:00pm 21.0 ENE 28 35 1023.7 - 0.0 - Partly cloudy - - - - -
27/01:46pm 21.0 ENE 27 38 1023.6 - 0.0 - Partly cloudy - - - - -
27/01:30pm 20.9 ENE 27 35 1023.8 - 0.0 - Partly cloudy - - - - -
27/01:25pm 21.1 ENE 25 35 1023.8 - 0.0 - Partly cloudy - - - - -
27/01:00pm 21.1 E 27 34 1024.0 - 0.0 - Partly cloudy - - - - -
27/12:30pm 20.7 ENE 28 35 1024.0 - 0.0 - Partly cloudy - - - - -
27/12:00pm 20.2 E 28 35 1024.1 - 0.0 - Mostly clear - - - - -
27/11:30am 19.9 ENE 27 34 1024.1 - 0.0 - - - - - - -
27/11:00am 19.6 E 26 32 1024.3 - 0.0 - - - - - - -
27/10:30am 19.0 ENE 25 33 1024.5 - 0.0 - Partly cloudy - - - - -
27/10:00am 18.6 ENE 25 33 1024.4 - 0.0 - Partly cloudy - - - - -
27/09:30am 17.6 ENE 27 34 1024.1 - 0.0 - - - - - - -
27/09:00am 17.1 ENE 27 34 1023.9 - 0.0 - - - - - - -
27/08:30am 16.3 E 24 29 1023.9 - 0.0 - - - - - - -
27/08:00am 15.6 ENE 23 28 1023.8 - 0.0 - - - - - - -
27/07:30am 15.4 E 22 28 1023.7 - 0.0 - Partly cloudy - - - - -
27/07:00am 15.6 ENE 25 31 1023.4 - 0.0 - Partly cloudy - - - - -
27/06:30am 15.5 ENE 23 28 1023.5 - 0.0 - - - - - - -
27/06:00am 15.5 ENE 21 26 1023.5 - 0.0 - - - - - - -
27/05:30am 15.6 ENE 22 27 1023.2 - 0.0 - - - - - - -
27/05:00am 15.6 ENE 22 27 1023.0 - 0.0 - - - - - - -
27/04:30am 15.7 ENE 23 28 1022.9 - 0.0 - - - - - - -
27/04:00am 15.6 ENE 22 27 1023.1 - 0.0 - - - - - - -
27/03:30am 15.7 ENE 21 25 1023.4 - 0.0 - - - - - - -
27/03:00am 15.7 ENE 22 28 1023.5 - 0.0 - - - - - - -
27/02:30am 15.8 ENE 22 27 1023.3 - 0.0 - - - - - - -
27/02:00am 15.7 ENE 21 26 1023.8 - 0.0 - - - - - - -
27/01:30am 15.6 ENE 20 28 1024.0 - 0.0 - - - - - - -
27/01:07am 15.7 ENE 19 29 1024.1 - 0.0 - - - - - - -
27/01:00am 15.7 ENE 20 25 1024.1 - 0.0 - - - - - - -
27/12:30am 15.7 ENE 21 27 1024.0 - 0.0 - - - - - - -
27/12:00am 15.8 ENE 20 25 1024.1 - 0.0 - - - - - - -
 
Date/Time
EDT
Temp
°C
Wind Pressure Rain since
9am
mm
Weather Cloud Vis
km
Sea
Height
m
Swell
Dir  Spd
kts
Gust
kts
hPa Trend Height
m
Period
s
Dir
26/11:30pm 15.6 ENE 21 27 1024.1 - 0.0 - - - - - - -
26/11:00pm 15.6 ENE 22 27 1024.1 - 0.0 - - - - - - -
26/10:30pm 15.4 E 21 25 1024.2 - 0.0 - - - - - - -
26/10:00pm 15.3 E 20 24 1024.3 - 0.0 - - - - - - -
26/09:30pm 15.3 E 19 24 1024.2 - 0.0 - - - - - - -
26/09:00pm 15.4 E 19 24 1024.0 - 0.0 - - - - - - -
26/08:30pm 15.7 E 21 27 1023.7 - 0.0 - - - - - - -
26/08:00pm 16.0 E 21 27 1023.8 - 0.0 - - - - - - -
26/07:30pm 16.5 ENE 20 25 1023.8 - 0.0 - - - - - - -
26/07:00pm 16.5 E 21 27 1023.7 - 0.0 - - - - - - -
26/06:30pm 17.4 E 23 28 1023.5 - 0.0 - - - - - - -
26/06:00pm 17.9 E 23 30 1023.1 - 0.0 - - - - - - -
26/05:30pm 18.3 ENE 24 30 1022.9 - 0.0 - - - - - - -
26/05:00pm 18.8 ENE 23 30 1023.1 - 0.0 - - - - - - -
26/04:30pm 18.7 ENE 24 31 1023.4 - 0.0 - - - - - - -
26/04:00pm 19.1 ENE 24 31 1023.4 - 0.0 - - - - - - -
26/03:30pm 19.3 ENE 25 32 1023.4 - 0.0 - - - - - - -
26/03:00pm 19.7 ENE 24 34 1023.8 - 0.0 - - - - - - -
26/02:59pm 19.5 ENE 24 34 1023.8 - 0.0 - - - - - - -
26/02:30pm 20.1 ENE 24 30 1024.1 - 0.0 - - - - - - -
26/02:00pm 19.8 ENE 23 29 1024.2 - 0.0 - - - - - - -
26/01:30pm 19.4 E 23 29 1024.5 - 0.0 - - - - - - -
26/01:00pm 19.0 ENE 23 30 1024.9 - 0.0 - - - - - - -
26/12:30pm 19.8 ENE 21 28 1025.2 - 0.0 - - - - - - -
26/12:00pm 18.7 ENE 23 28 1025.3 - 0.0 - - - - - - -
26/11:30am 19.1 ENE 22 27 1025.5 - 0.0 - - - - - - -
26/11:00am 18.5 ENE 21 26 1025.6 - 0.0 - - - - - - -
26/10:30am 18.3 ENE 19 24 1025.7 - 0.0 - - - - - - -
26/10:00am 18.1 ENE 19 23 1025.6 - 0.0 - - - - - - -
26/09:30am 17.6 ENE 19 24 1025.3 - 0.0 - - - - - - -
26/09:00am 16.8 ENE 19 23 1025.1 - 0.0 - - - - - - -
26/08:30am 16.2 ENE 17 24 1025.1 - 0.0 - - - - - - -
26/08:00am 15.4 ENE 15 19 1025.2 - 0.0 - - - - - - -
26/07:30am 14.7 ENE 15 19 1025.0 - 0.0 - - - - - - -
26/07:00am 14.4 ENE 15 18 1024.7 - 0.0 - - - - - - -
26/06:30am 14.4 ENE 13 17 1024.5 - 0.0 - - - - - - -
26/06:00am 14.0 ENE 14 17 1024.3 - 0.0 - - - - - - -
26/05:30am 14.1 ENE 14 17 1024.2 - 0.0 - - - - - - -
26/05:00am 13.7 NE 14 17 1023.9 - 0.0 - - - - - - -
26/04:30am 11.8 ENE 11 13 1023.8 - 0.0 - Partly cloudy - - - - -
26/04:00am 11.9 ESE 10 11 1024.3 - 0.0 - - - - - - -
26/03:30am 12.0 ESE 10 11 1024.5 - 0.0 - - - - - - -
26/03:00am 12.5 ESE 9 11 1024.8 - 0.0 - - - - - - -
26/02:30am 12.4 ESE 10 11 1024.6 - 0.0 - - - - - - -
26/02:00am 12.4 ESE 9 10 1025.1 - 0.0 - - - - - - -
26/01:30am 12.6 ESE 9 10 1025.3 - 0.0 - Partly cloudy - - - - -
26/01:00am 14.0 ESE 8 10 1025.8 - 0.0 - Cloudy - - - - -
26/12:30am 14.1 SE 10 11 1026.2 - 0.0 - Cloudy - - - - -
26/12:00am 13.9 ESE 11 13 1026.2 - 0.0 - Cloudy - - - - -
 
Date/Time
EDT
Temp
°C
Wind Pressure Rain since
9am
mm
Weather Cloud Vis
km
Sea
Height
m
Swell
Dir  Spd
kts
Gust
kts
hPa Trend Height
m
Period
s
Dir
25/11:30pm 13.9 SE 10 11 1026.1 - 0.0 - Cloudy - - - - -

Other Formats:

Comma delimited format used in spreadsheet applications
http://www.bom.gov.au/fwo/IDT60701/IDT60701.95954.axf

JavaScript Object Notation format (JSON) in row-major order
http://www.bom.gov.au/fwo/IDT60701/IDT60701.95954.json